| time (UTC) | temp C | wind direction | speed KPH | gust KPH | rain 1hr cm | rain 24hr cm | rain mn cm | humidity % | barometer mb |
| 20260506050606 | 11 | 238 | 1.6 | 6.4 | 0.00 | 0.36 | 0.00 | 54 | 1004.3 |
| 20260506044518 | 11 | 262 | 3.2 | 4.8 | 0.00 | 0.36 | 0.00 | 52 | 1004.1 |
| 20260506043534 | 11 | 267 | 3.2 | 4.8 | 0.00 | 0.36 | 0.00 | 51 | 1004.2 |
| 20260506042530 | 11 | 270 | 3.2 | 6.4 | 0.00 | 0.36 | 0.00 | 50 | 1004.1 |
| 20260506041526 | 11 | 271 | 3.2 | 9.7 | 0.00 | 0.36 | 0.00 | 49 | 1004.2 |
| 20260506040522 | 11 | 270 | 3.2 | 9.7 | 0.00 | 0.36 | 0.00 | 49 | 1004.3 |
| 20260506035537 | 11 | 268 | 4.8 | 9.7 | 0.00 | 0.36 | 0.36 | 50 | 1004.2 |
| 20260506034534 | 11 | 262 | 3.2 | 9.7 | 0.00 | 0.36 | 0.36 | 51 | 1004.4 |
| 20260506033610 | 11 | 265 | 3.2 | 9.7 | 0.00 | 0.36 | 0.36 | 51 | 1004.5 |
| 20260506032525 | 11 | 270 | 4.8 | 6.4 | 0.00 | 0.36 | 0.36 | 51 | 1004.3 |
| 20260506031522 | 11 | 258 | 3.2 | 6.4 | 0.00 | 0.36 | 0.36 | 51 | 1004.3 |
| 20260506030518 | 11 | 263 | 4.8 | 9.7 | 0.00 | 0.36 | 0.36 | 52 | 1004.4 |
| 20260506025534 | 11 | 263 | 4.8 | 9.7 | 0.00 | 0.36 | 0.36 | 52 | 1004.4 |
| 20260506024529 | 11 | 263 | 4.8 | 11.3 | 0.00 | 0.36 | 0.36 | 52 | 1004.3 |
| 20260506023525 | 11 | 263 | 3.2 | 6.4 | 0.00 | 0.36 | 0.36 | 54 | 1004.3 |
| 20260506022521 | 11 | 250 | 3.2 | 9.7 | 0.00 | 0.36 | 0.36 | 56 | 1004.4 |
| 20260506021658 | 11 | 253 | 3.2 | 6.4 | 0.00 | 0.38 | 0.36 | 57 | 1004.2 |
| 20260506020533 | 11 | 260 | 3.2 | 6.4 | 0.00 | 0.41 | 0.36 | 56 | 1004.2 |
| 20260506015550 | 11 | 253 | 1.6 | 4.8 | 0.00 | 0.41 | 0.36 | 58 | 1004.0 |
| 20260506014525 | 12 | 258 | 1.6 | 3.2 | 0.00 | 0.48 | 0.36 | 58 | 1003.9 |
| 20260506013521 | 12 | 255 | 3.2 | 9.7 | 0.00 | 0.48 | 0.36 | 59 | 1003.9 |
| 20260506012517 | 12 | 258 | 3.2 | 6.4 | 0.00 | 0.51 | 0.36 | 58 | 1003.8 |
| 20260506011533 | 12 | 262 | 4.8 | 9.7 | 0.00 | 0.56 | 0.36 | 58 | 1003.8 |
| 20260506010528 | 12 | 260 | 4.8 | 9.7 | 0.00 | 0.56 | 0.36 | 60 | 1003.9 |
| 20260506005525 | 12 | 261 | 4.8 | 12.9 | 0.00 | 0.56 | 0.36 | 60 | 1003.8 |
| 20260506004520 | 12 | 254 | 4.8 | 11.3 | 0.00 | 0.56 | 0.36 | 64 | 1003.8 |
| 20260506003516 | 12 | 267 | 3.2 | 9.7 | 0.00 | 0.56 | 0.36 | 65 | 1003.9 |
| 20260506002533 | 12 | 269 | 1.6 | 4.8 | 0.00 | 0.56 | 0.36 | 66 | 1003.6 |
| 20260506001548 | 12 | 261 | 3.2 | 6.4 | 0.00 | 0.56 | 0.36 | 66 | 1003.4 |
| 20260506000545 | 12 | 248 | 1.6 | 3.2 | 0.00 | 0.58 | 0.36 | 67 | 1003.2 |
| 20260505235541 | 12 | 259 | 3.2 | 6.4 | 0.00 | 0.58 | 0.36 | 66 | 1003.2 |
| 20260505234516 | 12 | 258 | 3.2 | 6.4 | 0.00 | 0.58 | 0.36 | 66 | 1003.0 |
| 20260505233533 | 12 | 256 | 1.6 | 3.2 | 0.00 | 0.58 | 0.36 | 66 | 1003.0 |
| 20260505232529 | 12 | 262 | 3.2 | 6.4 | 0.00 | 0.58 | 0.36 | 66 | 1002.9 |
| 20260505231525 | 13 | 263 | 3.2 | 9.7 | 0.00 | 0.58 | 0.36 | 66 | 1003.0 |
| 20260505230541 | 13 | 259 | 1.6 | 4.8 | 0.00 | 0.58 | 0.36 | 65 | 1003.0 |
| 20260505225516 | 13 | 264 | 4.8 | 6.4 | 0.00 | 0.58 | 0.36 | 64 | 1003.1 |
| 20260505224553 | 13 | 264 | 3.2 | 6.4 | 0.00 | 0.58 | 0.36 | 64 | 1003.3 |
| 20260505223529 | 13 | 269 | 6.4 | 12.9 | 0.00 | 0.58 | 0.36 | 65 | 1003.2 |
| 20260505222525 | 13 | 259 | 4.8 | 9.7 | 0.00 | 0.58 | 0.36 | 66 | 1003.3 |
| 20260505221521 | 13 | 252 | 4.8 | 11.3 | 0.00 | 0.58 | 0.36 | 65 | 1003.3 |
| 20260505220517 | 13 | 272 | 6.4 | 12.9 | 0.00 | 0.58 | 0.36 | 66 | 1003.4 |
| 20260505215533 | 13 | 260 | 4.8 | 12.9 | 0.00 | 0.58 | 0.36 | 65 | 1003.4 |
| 20260505214549 | 13 | 264 | 8.0 | 14.5 | 0.00 | 0.58 | 0.36 | 64 | 1003.2 |
| 20260505213544 | 13 | 274 | 9.7 | 16.1 | 0.00 | 0.58 | 0.36 | 64 | 1003.2 |
| 20260505212520 | 13 | 269 | 8.0 | 16.1 | 0.00 | 0.58 | 0.36 | 64 | 1003.1 |
| 20260505211516 | 13 | 247 | 4.8 | 14.5 | 0.00 | 0.58 | 0.36 | 66 | 1003.1 |
| 20260505210532 | 13 | 248 | 6.4 | 16.1 | 0.00 | 0.58 | 0.36 | 67 | 1003.2 |
| 20260505205528 | 13 | 245 | 4.8 | 11.3 | 0.00 | 0.58 | 0.36 | 67 | 1003.3 |
| 20260505204524 | 13 | 251 | 6.4 | 12.9 | 0.00 | 0.58 | 0.36 | 68 | 1003.2 |
| 20260505203519 | 13 | 246 | 6.4 | 14.5 | 0.00 | 0.58 | 0.36 | 69 | 1003.4 |
| 20260505202516 | 12 | 248 | 8.0 | 12.9 | 0.00 | 0.58 | 0.36 | 70 | 1003.3 |
| 20260505201532 | 12 | 251 | 3.2 | 11.3 | 0.00 | 0.58 | 0.36 | 71 | 1003.3 |
| 20260505200527 | 12 | 252 | 3.2 | 6.4 | 0.00 | 0.58 | 0.36 | 71 | 1003.2 |
| 20260505195523 | 12 | 250 | 4.8 | 9.7 | 0.00 | 0.58 | 0.36 | 72 | 1003.4 |
| 20260505194519 | 12 | 256 | 4.8 | 11.3 | 0.00 | 0.58 | 0.36 | 72 | 1003.6 |
| 20260505193516 | 12 | 252 | 6.4 | 12.9 | 0.00 | 0.58 | 0.36 | 72 | 1003.6 |
| 20260505192551 | 12 | 249 | 6.4 | 14.5 | 0.00 | 0.58 | 0.36 | 72 | 1003.8 |
| 20260505191527 | 12 | 238 | 4.8 | 14.5 | 0.00 | 0.58 | 0.36 | 73 | 1003.8 |
| 20260505190523 | 11 | 249 | 6.4 | 11.3 | 0.00 | 0.58 | 0.36 | 74 | 1003.6 |
| 20260505185519 | 11 | 239 | 6.4 | 16.1 | 0.00 | 0.58 | 0.36 | 76 | 1003.5 |
| 20260505184535 | 11 | 237 | 4.8 | 11.3 | 0.00 | 0.58 | 0.36 | 77 | 1003.3 |
| 20260505183531 | 11 | 232 | 3.2 | 6.4 | 0.03 | 0.58 | 0.36 | 77 | 1003.2 |
| 20260505182547 | 11 | 231 | 4.8 | 9.7 | 0.05 | 0.58 | 0.36 | 78 | 1003.1 |
| 20260505181523 | 11 | 196 | 3.2 | 6.4 | 0.08 | 0.58 | 0.36 | 77 | 1003.2 |
| 20260505180519 | 11 | 190 | 1.6 | 4.8 | 0.13 | 0.58 | 0.36 | 77 | 1003.2 |
| 20260505175535 | 11 | 141 | 3.2 | 4.8 | 0.15 | 0.58 | 0.36 | 76 | 1003.0 |
| 20260505174531 | 11 | 140 | 3.2 | 4.8 | 0.20 | 0.58 | 0.36 | 76 | 1003.0 |
| 20260505173527 | 11 | 219 | 1.6 | 3.2 | 0.23 | 0.56 | 0.33 | 75 | 1003.3 |
| 20260505172523 | 11 | 91 | 0.0 | 3.2 | 0.23 | 0.53 | 0.33 | 74 | 1003.2 |
| 20260505171539 | 11 | 84 | 1.6 | 3.2 | 0.20 | 0.51 | 0.28 | 73 | 1003.2 |
| 20260505170535 | 11 | 72 | 0.0 | 3.2 | 0.15 | 0.46 | 0.23 | 72 | 1003.5 |
| 20260505165531 | 11 | 66 | 0.0 | 1.6 | 0.10 | 0.43 | 0.20 | 71 | 1003.1 |
| 20260505164526 | 12 | 83 | 1.6 | 3.2 | 0.08 | 0.38 | 0.15 | 69 | 1003.1 |
| 20260505163522 | 12 | 82 | 0.0 | 3.2 | 0.03 | 0.33 | 0.10 | 67 | 1003.1 |
| 20260505162518 | 12 | 72 | 1.6 | 4.8 | 0.00 | 0.30 | 0.10 | 66 | 1002.9 |
| 20260505161615 | 12 | 73 | 1.6 | 4.8 | 0.00 | 0.30 | 0.10 | 67 | 1002.4 |
| 20260505160610 | 13 | 71 | 3.2 | 6.4 | 0.00 | 0.30 | 0.10 | 65 | 1002.6 |
| 20260505152535 | 13 | 77 | 4.8 | 11.3 | 0.00 | 0.30 | 0.10 | 63 | 1001.8 |
| 20260505151551 | 13 | 54 | 1.6 | 4.8 | 0.00 | 0.30 | 0.10 | 64 | 1001.9 |
| 20260505150527 | 13 | 55 | 1.6 | 9.7 | 0.00 | 0.30 | 0.10 | 63 | 1002.0 |
| 20260505140523 | 12 | 28 | 4.8 | 9.7 | 0.00 | 0.30 | 0.10 | 66 | 1000.9 |
| 20260505124531 | 15 | 243 | 6.4 | 17.7 | 0.00 | 0.30 | 0.10 | 72 | 999.2 |
| 20260505123527 | 15 | 266 | 9.7 | 20.9 | 0.00 | 0.30 | 0.10 | 73 | 999.8 |
| 20260505122523 | 15 | 260 | 4.8 | 9.7 | 0.00 | 0.30 | 0.10 | 74 | 999.5 |
| 20260505121519 | 15 | 258 | 6.4 | 14.5 | 0.00 | 0.30 | 0.10 | 74 | 999.6 |
| 20260505120535 | 15 | 238 | 4.8 | 11.3 | 0.00 | 0.30 | 0.10 | 74 | 999.3 |
| 20260505115551 | 15 | 259 | 8.0 | 14.5 | 0.00 | 0.30 | 0.10 | 75 | 999.4 |
| 20260505114527 | 15 | 251 | 6.4 | 12.9 | 0.00 | 0.30 | 0.10 | 75 | 999.2 |
| 20260505113603 | 15 | 269 | 6.4 | 14.5 | 0.00 | 0.30 | 0.10 | 75 | 998.9 |
| 20260505112539 | 14 | 270 | 9.7 | 22.5 | 0.00 | 0.30 | 0.10 | 75 | 998.5 |
| 20260505111615 | 14 | 264 | 6.4 | 16.1 | 0.00 | 0.30 | 0.10 | 75 | 998.3 |
| 20260505110531 | 14 | 264 | 9.7 | 17.7 | 0.00 | 0.30 | 0.10 | 76 | 998.2 |
| 20260505101550 | 15 | 258 | 8.0 | 16.1 | 0.00 | 0.30 | 0.10 | 76 | 997.2 |
| 20260505100527 | 15 | 250 | 9.7 | 22.5 | 0.00 | 0.30 | 0.10 | 76 | 997.1 |
| 20260505095522 | 15 | 246 | 11.3 | 24.1 | 0.00 | 0.30 | 0.10 | 76 | 997.0 |
| 20260505094519 | 15 | 258 | 12.9 | 27.4 | 0.00 | 0.30 | 0.10 | 76 | 996.9 |
| 20260505093555 | 15 | 257 | 12.9 | 24.1 | 0.00 | 0.30 | 0.10 | 77 | 996.7 |
| 20260505092530 | 15 | 256 | 12.9 | 24.1 | 0.00 | 0.30 | 0.10 | 77 | 996.8 |
| 20260505091527 | 15 | 245 | 11.3 | 20.9 | 0.00 | 0.30 | 0.10 | 77 | 996.6 |
| 20260505090522 | 15 | 261 | 11.3 | 25.7 | 0.00 | 0.30 | 0.10 | 77 | 996.7 |
| 20260505085519 | 15 | 250 | 9.7 | 27.4 | 0.00 | 0.30 | 0.10 | 77 | 996.8 |
| 20260505084534 | 15 | 247 | 8.0 | 17.7 | 0.00 | 0.30 | 0.10 | 77 | 996.6 |
| 20260505083551 | 15 | 255 | 11.3 | 22.5 | 0.00 | 0.30 | 0.10 | 77 | 996.5 |
| 20260505082526 | 15 | 239 | 9.7 | 20.9 | 0.00 | 0.30 | 0.10 | 77 | 996.4 |
| 20260505081522 | 15 | 257 | 9.7 | 20.9 | 0.00 | 0.30 | 0.10 | 77 | 996.3 |
| 20260505080538 | 15 | 252 | 9.7 | 22.5 | 0.00 | 0.30 | 0.10 | 76 | 996.1 |
| 20260505075534 | 15 | 250 | 9.7 | 17.7 | 0.00 | 0.30 | 0.10 | 76 | 995.8 |
| 20260505074530 | 15 | 253 | 9.7 | 17.7 | 0.00 | 0.30 | 0.10 | 76 | 995.3 |
| 20260505073546 | 15 | 244 | 6.4 | 14.5 | 0.00 | 0.30 | 0.10 | 76 | 994.9 |
| 20260505072542 | 15 | 254 | 8.0 | 16.1 | 0.00 | 0.30 | 0.10 | 76 | 995.3 |
| 20260505071518 | 15 | 256 | 8.0 | 20.9 | 0.00 | 0.30 | 0.10 | 76 | 995.4 |
| 20260505070534 | 15 | 258 | 9.7 | 17.7 | 0.00 | 0.30 | 0.10 | 76 | 995.5 |
| 20260505065531 | 15 | 266 | 9.7 | 20.9 | 0.00 | 0.30 | 0.10 | 76 | 995.4 |
| 20260505064526 | 15 | 257 | 8.0 | 16.1 | 0.00 | 0.30 | 0.10 | 76 | 995.8 |
| 20260505063522 | 15 | 263 | 8.0 | 14.5 | 0.00 | 0.30 | 0.10 | 76 | 995.9 |
| 20260505062518 | 15 | 252 | 8.0 | 16.1 | 0.00 | 0.30 | 0.10 | 77 | 995.7 |
| 20260505061534 | 15 | 249 | 6.4 | 12.9 | 0.08 | 0.30 | 0.10 | 77 | 995.4 |
| 20260505060530 | 15 | 226 | 6.4 | 14.5 | 0.10 | 0.30 | 0.10 | 75 | 995.5 |